Simultaneous Nadir Overpasses (SNOs) Predictions

Prediction of SNOs between NPP and PACE Satellite Orbit:

Table of predicted SNOs for the next 14.0 days since TLE Epoch: 4/5/2025
Index Date (NPP) Time (NPP) Lat,Lon (NPP) SZA (NPP ) Date (PACE) Time (PACE) Lat,Lon (PACE) SZA (PACE ) Distance(km) Time Diff (sec)
1 04/07/2025 07:08:21 -79.90,-144.96 104.86 04/07/2025 07:08:53 -79.91,-145.02 104.87 1.18 32
2 04/07/2025 07:59:01 79.73, 24.02 74.81 04/07/2025 07:58:00 79.73, 23.99 74.85 0.47 61
3 04/09/2025 12:25:36 79.87, -43.95 74.25 04/09/2025 12:25:22 79.86, -43.82 74.23 2.82 14
4 04/11/2025 16:52:09 79.96,-111.41 73.59 04/11/2025 16:52:42 79.95,-111.32 73.56 1.90 33
5 04/11/2025 17:42:45 -79.70, 58.35 106.90 04/11/2025 17:41:45 -79.71, 58.22 106.85 2.79 60
6 04/13/2025 22:09:19 -79.82, -9.38 107.49 04/13/2025 22:09:05 -79.83, -9.47 107.47 1.79 14
7 04/16/2025 02:35:53 -79.94, -77.20 108.05 04/16/2025 02:36:24 -79.94, -77.13 108.08 1.53 31
8 04/16/2025 03:26:33 79.78, 91.68 71.64 04/16/2025 03:25:31 79.77, 91.81 71.65 2.67 62
9 04/18/2025 07:03:52 -81.29,-175.66 103.89 04/18/2025 07:05:05 -81.88,-175.31 103.78 66.23 73



Historial Predications of SNOs between NPP and PACE
